DW7589 Weather Reports


time (UTC)temp
C
wind
direction
speed
KPH
gust
KPH
rain 1hr
cm
rain 24hr
cm
rain mn
cm
humidity
%
barometer
mb
20260906220736 28 0 0.0 1.6 0.43 0.43 0.43 86 1010.9
20260906220235 28 0 0.0 1.6 0.43 0.43 0.43 86 1010.9
20260906215736 28 0 0.0 3.2 0.43 0.43 0.43 87 1010.9
20260906215235 28 0 0.0 3.2 0.43 0.43 0.43 86 1011.0
20260906214736 28 0 0.0 1.6 0.43 0.43 0.43 88 1011.0
20260906213736 27 186 1.6 4.8 0.43 0.43 0.43 84 1011.2
20260906212736 28 241 6.4 12.9 0.43 0.43 0.43 74 1011.2
20260906212236 28 213 6.4 14.5 0.43 0.43 0.43 72 1011.3
20260906211736 30 128 6.4 17.7 0.38 0.38 0.38 67 1011.8
20260906210735 35 134 6.4 12.9 0.00 0.00 0.00 49 1011.1
20260906205737 36 141 4.8 12.9 0.00 0.00 0.00 44 1010.9
20260906205237 36 143 4.8 12.9 0.00 0.00 0.00 43 1010.9
20260906204735 36 143 3.2 11.3 0.00 0.00 0.00 41 1010.9
20260906204236 36 206 3.2 6.4 0.00 0.00 0.00 39 1010.8
20260906203737 36 257 3.2 6.4 0.00 0.00 0.00 40 1011.0
20260906203235 36 198 3.2 6.4 0.00 0.00 0.00 39 1011.1
20260906202736 36 183 3.2 6.4 0.00 0.00 0.00 39 1011.1
20260906202235 37 189 3.2 6.4 0.00 0.00 0.00 37 1011.2
20260906201236 37 238 4.8 9.7 0.00 0.00 0.00 37 1011.3
20260906200736 38 155 3.2 12.9 0.00 0.00 0.00 36 1011.3
20260906195735 38 92 3.2 8.0 0.00 0.00 0.00 39 1011.4
20260906194736 37 187 3.2 8.0 0.00 0.00 0.00 38 1011.5
20260906194236 37 141 3.2 8.0 0.00 0.00 0.00 39 1011.7
20260906193735 37 143 3.2 11.3 0.00 0.00 0.00 40 1011.7
20260906193236 37 158 3.2 11.3 0.00 0.00 0.00 39 1011.8
20260906192736 37 167 3.2 9.7 0.00 0.00 0.00 39 1011.9
20260906192236 37 181 3.2 8.0 0.00 0.00 0.00 40 1011.9
20260906191735 37 185 3.2 8.0 0.00 0.00 0.00 41 1011.9
20260906190737 36 171 3.2 12.9 0.00 0.00 0.00 41 1012.0
20260906185736 36 162 4.8 12.9 0.00 0.00 0.00 43 1012.2
20260906185237 36 154 3.2 12.9 0.00 0.00 0.00 43 1012.3
20260906184735 36 177 3.2 11.3 0.00 0.00 0.00 43 1012.3
20260906184236 36 183 3.2 8.0 0.00 0.00 0.00 43 1012.4
20260906183736 36 187 3.2 11.3 0.00 0.00 0.00 44 1012.5
20260906183236 36 193 3.2 11.3 0.00 0.00 0.00 44 1012.5
20260906182736 36 211 3.2 11.3 0.00 0.00 0.00 44 1012.5
20260906180235 36 185 3.2 9.7 0.00 0.00 0.00 47 1013.0
20260906175736 35 164 3.2 8.0 0.00 0.00 0.00 46 1013.1
20260906175235 35 150 4.8 11.3 0.00 0.00 0.00 46 1013.2
20260906174736 35 162 4.8 11.3 0.00 0.00 0.00 44 1013.2
20260906174236 35 169 4.8 11.3 0.00 0.00 0.00 44 1013.2
20260906173737 36 162 3.2 11.3 0.00 0.00 0.00 44 1013.3
20260906173235 35 120 1.6 9.7 0.00 0.00 0.00 47 1013.5
20260906172235 35 114 3.2 8.0 0.00 0.00 0.00 49 1013.6
20260906171736 34 116 3.2 6.4 0.00 0.00 0.00 51 1013.6
20260906171235 34 115 3.2 8.0 0.00 0.00 0.00 49 1013.7
20260906170736 35 129 3.2 8.0 0.00 0.00 0.00 48 1013.8
20260906170235 35 133 3.2 8.0 0.00 0.00 0.00 48 1013.9
20260906165236 35 142 4.8 11.3 0.00 0.00 0.00 48 1013.9
20260906164736 35 148 3.2 9.7 0.00 0.00 0.00 48 1013.9
20260906164235 35 131 1.6 6.4 0.00 0.00 0.00 50 1014.1
20260906163735 35 127 3.2 6.4 0.00 0.00 0.00 50 1014.1
20260906162736 34 99 3.2 12.9 0.00 0.00 0.00 52 1014.1
20260906162237 34 206 3.2 8.0 0.00 0.00 0.00 52 1014.1
20260906161736 34 182 3.2 8.0 0.00 0.00 0.00 54 1014.1
20260906161236 34 118 3.2 6.4 0.00 0.00 0.00 54 1014.2
20260906160736 33 137 3.2 8.0 0.00 0.00 0.00 54 1014.2
20260906160235 33 136 3.2 8.0 0.00 0.00 0.00 55 1014.2
20260906154738 32 188 3.2 6.4 0.00 0.00 0.00 60 1014.1
20260906154237 32 37 1.6 6.4 0.00 0.00 0.00 60 1014.1
20260906153735 32 65 1.6 4.8 0.00 0.00 0.00 60 1014.2
20260906153236 32 140 1.6 4.8 0.00 0.00 0.00 62 1014.2
20260906152735 32 133 3.2 8.0 0.00 0.00 0.00 64 1014.2
20260906152236 31 144 3.2 8.0 0.00 0.00 0.00 64 1014.2
20260906151735 31 155 3.2 6.4 0.00 0.00 0.00 64 1014.2
20260906151236 31 156 1.6 4.8 0.00 0.00 0.00 65 1014.1
20260906150236 31 127 3.2 8.0 0.00 0.00 0.00 64 1014.1
20260906145735 31 140 3.2 8.0 0.00 0.00 0.00 66 1014.1
20260906145236 31 103 3.2 6.4 0.00 0.00 0.00 65 1014.0
20260906144735 31 88 1.6 4.8 0.00 0.00 0.00 69 1014.0
20260906144236 30 159 1.6 4.8 0.00 0.00 0.00 70 1014.0
20260906143736 30 0 0.0 4.8 0.00 0.00 0.00 72 1014.0
20260906143236 29 199 1.6 3.2 0.00 0.00 0.00 75 1014.0
20260906142736 28 261 1.6 3.2 0.00 0.00 0.00 76 1013.9
20260906141736 27 196 1.6 3.2 0.00 0.00 0.00 79 1014.0
20260906141237 27 187 1.6 3.2 0.00 0.00 0.00 81 1014.0
20260906140736 27 173 1.6 4.8 0.00 0.00 0.00 81 1014.1
20260906140237 27 156 1.6 6.4 0.00 0.00 0.00 82 1014.2
20260906135736 27 143 3.2 6.4 0.00 0.00 0.00 83 1014.3
20260906134736 26 139 1.6 6.4 0.00 0.00 0.00 85 1014.2
20260906133236 26 157 1.6 4.8 0.00 0.00 0.00 86 1014.2
20260906132236 25 155 1.6 3.2 0.00 0.00 0.00 87 1014.1
20260906131736 25 149 1.6 3.2 0.00 0.00 0.00 87 1014.2
20260906131237 25 146 1.6 3.2 0.00 0.00 0.00 88 1014.1
20260906130736 25 146 1.6 3.2 0.00 0.00 0.00 88 1014.0
20260906130236 25 149 1.6 3.2 0.00 0.00 0.00 89 1013.9
20260906125736 24 0 0.0 3.2 0.00 0.00 0.00 89 1013.8
20260906125235 24 0 0.0 3.2 0.00 0.00 0.00 89 1013.8
20260906124736 24 0 0.0 3.2 0.00 0.00 0.00 90 1013.7
20260906124237 24 0 0.0 3.2 0.00 0.00 0.00 90 1013.7
20260906123236 23 0 0.0 3.2 0.00 0.00 0.00 90 1013.4
20260906122736 23 0 0.0 3.2 0.00 0.00 0.00 90 1013.4
20260906122236 23 0 0.0 1.6 0.00 0.00 0.00 90 1013.4
20260906121737 23 0 0.0 1.6 0.00 0.00 0.00 90 1013.3
20260906121236 23 0 0.0 1.6 0.00 0.00 0.00 90 1013.2
20260906115236 23 0 0.0 3.2 0.00 0.00 0.00 89 1013.0
20260906114736 24 0 0.0 1.6 0.00 0.00 0.00 88 1013.0
20260906114237 24 0 0.0 0.0 0.00 0.00 0.00 87 1012.9
20260906113237 24 0 0.0 1.6 0.00 0.00 0.00 86 1012.8
20260906112736 24 126 1.6 3.2 0.00 0.00 0.00 85 1012.8
20260906112236 24 130 1.6 3.2 0.00 0.00 0.00 85 1012.7
20260906111736 25 0 0.0 1.6 0.00 0.00 0.00 84 1012.7
20260906111236 25 0 0.0 1.6 0.00 0.00 0.00 83 1012.7
20260906110736 25 0 0.0 1.6 0.00 0.00 0.00 83 1012.7
20260906110238 25 0 0.0 1.6 0.00 0.00 0.00 83 1012.7
20260906105736 25 0 0.0 1.6 0.00 0.00 0.00 83 1012.5
20260906105237 25 0 0.0 1.6 0.00 0.00 0.00 83 1012.4
20260906104738 25 0 0.0 1.6 0.00 0.00 0.00 83 1012.3
20260906104236 25 0 0.0 0.0 0.00 0.00 0.00 83 1012.2
20260906103735 25 0 0.0 0.0 0.00 0.00 0.00 82 1012.2
20260906103236 25 0 0.0 0.0 0.00 0.00 0.00 82 1012.2
20260906102736 25 0 0.0 1.6 0.00 0.00 0.00 82 1012.2
20260906101736 25 0 0.0 1.6 0.00 0.00 0.00 82 1012.2
20260906101238 25 0 0.0 1.6 0.00 0.00 0.00 82 1012.1
20260906100737 25 0 0.0 1.6 0.00 0.00 0.00 82 1012.2
20260906100236 25 0 0.0 3.2 0.00 0.00 0.00 82 1012.2
20260906095736 25 0 0.0 3.2 0.00 0.00 0.00 81 1012.2
20260906095236 25 0 0.0 3.2 0.00 0.00 0.00 81 1012.1
20260906094736 25 0 0.0 1.6 0.00 0.00 0.00 81 1012.1
20260906093736 25 0 0.0 3.2 0.00 0.00 0.00 81 1012.0
20260906093237 25 0 0.0 3.2 0.00 0.00 0.00 80 1012.0
20260906092236 25 0 0.0 1.6 0.00 0.00 0.00 80 1011.9
20260906091737 25 0 0.0 1.6 0.00 0.00 0.00 80 1011.8
20260906091236 25 0 0.0 1.6 0.00 0.00 0.00 80 1011.8
20260906090737 25 0 0.0 3.2 0.00 0.00 0.00 79 1011.9
20260906090237 25 0 0.0 3.2 0.00 0.00 0.00 79 1011.7
20260906085737 25 153 1.6 3.2 0.00 0.00 0.00 79 1011.7
20260906085236 26 155 1.6 3.2 0.00 0.00 0.00 78 1011.8
20260906084736 26 159 1.6 3.2 0.00 0.00 0.00 78 1011.7
20260906084236 26 163 1.6 4.8 0.00 0.00 0.00 77 1011.8
20260906083738 26 165 1.6 4.8 0.00 0.00 0.00 77 1011.7
20260906083236 26 0 0.0 4.8 0.00 0.00 0.00 77 1011.7
20260906082736 26 0 0.0 4.8 0.00 0.00 0.00 77 1011.8
20260906082236 26 0 0.0 4.8 0.00 0.00 0.00 77 1011.8
20260906081737 26 0 0.0 4.8 0.00 0.00 0.00 76 1011.8
20260906081237 26 0 0.0 3.2 0.00 0.00 0.00 76 1011.8
20260906080237 26 0 0.0 1.6 0.00 0.00 0.00 76 1011.9
20260906075736 26 0 0.0 3.2 0.00 0.00 0.00 76 1011.9
20260906075237 26 0 0.0 3.2 0.00 0.00 0.00 75 1012.0
20260906074736 26 0 0.0 3.2 0.00 0.00 0.00 75 1012.1
20260906074236 26 0 0.0 3.2 0.00 0.00 0.00 75 1012.1
20260906073736 26 0 0.0 3.2 0.00 0.00 0.00 75 1012.2
20260906073237 26 182 1.6 3.2 0.00 0.00 0.00 74 1012.2
20260906072737 26 170 1.6 3.2 0.00 0.00 0.00 74 1012.2
20260906072236 26 157 1.6 6.4 0.00 0.00 0.00 75 1012.2
20260906071236 26 157 1.6 6.4 0.00 0.00 0.00 75 1012.5
20260906070738 26 153 1.6 6.4 0.00 0.00 0.00 75 1012.6
20260906070236 26 159 1.6 3.2 0.00 0.00 0.00 75 1012.6
20260906065737 26 166 1.6 3.2 0.00 0.00 0.00 74 1012.6
20260906065236 27 162 1.6 3.2 0.00 0.00 0.00 74 1012.6
20260906064738 27 155 1.6 3.2 0.00 0.00 0.00 74 1012.7
20260906064236 27 152 1.6 3.2 0.00 0.00 0.00 73 1012.8
20260906063237 27 146 1.6 3.2 0.00 0.00 0.00 73 1012.8
20260906062736 27 146 1.6 4.8 0.00 0.00 0.00 73 1012.8
20260906062237 27 146 1.6 4.8 0.00 0.00 0.00 73 1012.8
20260906061237 27 152 1.6 6.4 0.00 0.00 0.00 72 1012.8
20260906060737 27 158 1.6 6.4 0.00 0.00 0.00 72 1012.8
20260906060236 27 158 1.6 4.8 0.00 0.00 0.00 72 1012.8
20260906055737 27 155 1.6 6.4 0.00 0.00 0.00 72 1012.9
20260906054737 27 158 1.6 3.2 0.00 0.00 0.00 71 1012.7
20260906054236 27 160 1.6 4.8 0.00 0.00 0.00 71 1012.8
20260906053737 27 162 1.6 4.8 0.00 0.00 0.00 71 1012.7
20260906053238 27 170 1.6 3.2 0.00 0.00 0.00 71 1012.8
20260906052738 27 179 1.6 3.2 0.00 0.00 0.00 70 1012.7
20260906052236 27 177 1.6 3.2 0.00 0.00 0.00 70 1012.7
20260906051737 28 179 1.6 3.2 0.00 0.00 0.00 70 1012.6
20260906051238 28 176 1.6 4.8 0.00 0.00 0.00 70 1012.6
20260906050737 28 174 1.6 4.8 0.00 0.00 0.00 69 1012.7
20260906050236 28 176 1.6 6.4 0.00 0.00 0.00 69 1012.6
20260906045737 28 168 3.2 6.4 0.00 0.00 0.00 69 1012.6
20260906045236 28 157 3.2 6.4 0.00 0.00 0.00 69 1012.7
20260906044237 28 162 4.8 9.7 0.00 0.00 0.00 69 1012.8
20260906043736 28 159 4.8 8.0 0.00 0.00 0.00 69 1012.7
20260906043238 28 159 3.2 8.0 0.00 0.00 0.00 69 1012.8
20260906042237 28 172 1.6 4.8 0.00 0.00 0.00 69 1012.6
20260906041736 28 172 3.2 6.4 0.00 0.00 0.00 69 1012.4
20260906041237 28 169 1.6 6.4 0.00 0.00 0.00 68 1012.4
20260906040736 28 164 1.6 6.4 0.00 0.00 0.00 68 1012.4
20260906035736 28 156 3.2 8.0 0.00 0.00 0.00 68 1012.6
20260906035237 29 155 4.8 8.0 0.00 0.00 0.00 68 1012.5
20260906034737 29 154 4.8 9.7 0.00 0.00 0.00 67 1012.6
20260906034237 29 154 4.8 9.7 0.00 0.00 0.00 67 1012.6
20260906033237 29 155 3.2 8.0 0.00 0.00 0.00 65 1012.5
20260906032237 30 152 4.8 9.7 0.00 0.00 0.00 65 1012.6
20260906031737 30 153 3.2 8.0 0.00 0.00 0.00 65 1012.5
20260906031236 30 154 3.2 8.0 0.00 0.00 0.00 64 1012.5
20260906030737 30 154 4.8 8.0 0.00 0.00 0.00 64 1012.4
20260906030236 30 154 4.8 8.0 0.00 0.00 0.00 63 1012.4
20260906024736 30 146 3.2 8.0 0.00 0.00 0.00 62 1012.2
20260906023736 30 148 4.8 11.3 0.00 0.00 0.00 61 1012.0
20260906023237 30 146 4.8 11.3 0.00 0.00 0.00 61 1011.9
20260906022738 31 142 4.8 8.0 0.00 0.00 0.00 61 1011.8
20260906022236 31 143 3.2 8.0 0.00 0.00 0.00 61 1011.8
20260906021737 31 149 4.8 8.0 0.00 0.00 0.00 60 1011.7
20260906021236 31 154 4.8 9.7 0.00 0.00 0.00 59 1011.6
20260906020737 31 153 4.8 12.9 0.00 0.00 0.00 59 1011.5
20260906020237 31 152 6.4 12.9 0.00 0.00 0.00 59 1011.5
20260906015736 31 152 8.0 12.9 0.00 0.00 0.00 58 1011.4
20260906014737 31 151 8.0 14.5 0.00 0.00 0.00 57 1011.4
20260906014237 32 151 6.4 14.5 0.00 0.00 0.00 57 1011.3
20260906013737 32 149 6.4 11.3 0.00 0.00 0.00 55 1011.3
20260906013238 32 146 8.0 12.9 0.00 0.00 0.00 55 1011.1
20260906012737 32 143 6.4 12.9 0.00 0.00 0.00 55 1011.1
20260906012236 32 148 4.8 12.9 0.00 0.00 0.00 54 1011.0
20260906011737 32 146 4.8 11.3 0.00 0.00 0.00 54 1010.9
20260906011236 32 146 4.8 11.3 0.00 0.00 0.00 55 1010.9
20260906010737 32 151 4.8 8.0 0.00 0.00 0.00 56 1010.9
20260906010238 32 152 4.8 11.3 0.00 0.00 0.00 55 1010.7
20260906005737 32 153 4.8 11.3 0.00 0.00 0.00 55 1010.7
20260906005236 32 153 6.4 11.3 0.00 0.00 0.00 55 1010.6
20260906004737 32 152 6.4 12.9 0.00 0.00 0.00 56 1010.7
20260906004236 33 150 6.4 12.9 0.00 0.00 0.00 55 1010.6
20260906003737 33 150 6.4 12.9 0.00 0.00 0.00 54 1010.6
20260906003238 33 144 6.4 11.3 0.00 0.00 0.00 52 1010.6
20260906001736 33 147 8.0 14.5 0.00 0.00 0.00 50 1010.6
20260906001238 33 147 6.4 14.5 0.00 0.00 0.00 49 1010.5
20260906000736 34 141 6.4 14.5 0.00 0.00 0.00 49 1010.5
20260906000237 34 141 6.4 14.5 0.00 0.00 0.00 49 1010.4
20260905235736 34 137 8.0 17.7 0.00 0.00 0.00 50 1010.5
20260905235237 34 139 9.7 17.7 0.00 0.00 0.00 49 1010.4
20260905234737 34 144 9.7 17.7 0.00 0.00 0.00 49 1010.4
20260905234237 35 136 8.0 16.1 0.00 0.00 0.00 48 1010.3
20260905233738 35 126 6.4 17.7 0.00 0.00 0.00 47 1010.4
20260905233237 35 126 6.4 17.7 0.00 0.00 0.00 46 1010.4
20260905232738 35 128 6.4 16.1 0.00 0.00 0.00 45 1010.4
20260905232236 35 122 4.8 12.9 0.00 0.00 0.00 46 1010.4
20260905231738 35 103 4.8 14.5 0.00 0.00 0.00 46 1010.4
20260905231237 35 113 4.8 14.5 0.00 0.00 0.00 45 1010.5
20260905230236 36 119 4.8 12.9 0.00 0.00 0.00 45 1010.6
20260905225737 37 139 4.8 12.9 0.00 0.00 0.00 41 1010.5
20260905224738 37 164 4.8 9.7 0.00 0.00 0.00 38 1010.2
20260905224237 37 153 6.4 11.3 0.00 0.00 0.00 38 1010.3
20260905223737 37 152 4.8 11.3 0.00 0.00 0.00 39 1010.3
20260905223237 37 154 4.8 8.0 0.00 0.00 0.00 39 1010.1
20260905222737 37 146 3.2 9.7 0.00 0.00 0.00 39 1010.1
20260905222238 37 131 4.8 11.3 0.00 0.00 0.00 38 1010.1
20260905221737 37 131 3.2 11.3 0.00 0.00 0.00 38 1010.0
20260905221237 37 143 3.2 8.0 0.00 0.00 0.00 37 1010.0